Back to catalog

STARLINK-3445

AliveCommunicationsVLEO
NORAD 51717·PAYLOAD·🇺🇸 United States

Launched Feb 21, 2022 from Cape Canaveral Space Force Station

Loading…

Next Passes (next 24 hours)

TLE

FreshSource: CelesTrak SupGP

Epoch: Sep 14, 2026, 14:37 UTC

1 51717C 22016D   26257.60951389  .00028473  00000+0  91582-3 0  2573
2 51717  53.1591 187.2367 0001363  90.4884 297.7576 15.31680183    17

Track STARLINK-3445 in real time with AllMySat

Download on the App Store